Weather History for Thedford, NE

Change the Weather History Date:

Friday, April 19, 2013

  Actual Average (KLBF) Record (KLBF)
Temperature  
Mean Temperature 32 °F 49 °F  
Max Temperature 45 °F 63 °F 89 °F (1987)
Min Temperature 20 °F 34 °F 17 °F (1953)
Degree Days  
Heating Degree Days 32 16  
Month to date heating degree days 367  
Since 1 July heating degree days 6232  
Cooling Degree Days 0 0  
Month to date cooling degree days 0  
Year to date cooling degree days 0  
Moisture  
Dew Point 24 °F    
Average Humidity 67    
Maximum Humidity 83    
Minimum Humidity 46    
Precipitation  
Precipitation 0.00 in 0.09 in 2.22 in (1971)
Month to date precipitation 1.30  
Year to date precipitation 3.19  
Snow  
Snow 0.00 in 0.10 in 2.00 in (1966)
Month to date snowfall 2.6  
Since 1 July snowfall 27.9  
Snow Depth -    
Sea Level Pressure  
Sea Level Pressure 29.98 in    
Wind  
Wind Speed 10 mph (NW)    
Max Wind Speed 26 mph    
Max Gust Speed 34 mph    
Visibility 10 miles    
Events Snow    
T = Trace of Precipitation, MM = Missing Value Source: NWS Daily Summary

Daily Weather History Graph

Daily Weather History Graph

Search for Another Location

Airport:

Trip Planner

Search our weather history database for the weather conditions in past years. The results will help you decide how hot, cold, wet, or windy it might be!

Date:

Astronomy

Apr. 19, 2013 Rise Set
Actual Time 6:55 AM CDT 8:28 PM CDT
Civil Twilight 6:25 AM CDT 8:57 PM CDT
Nautical Twilight 5:50 AM CDT 9:33 PM CDT
Astronomical Twilight 5:12 AM CDT 10:10 PM CDT
Moon 2:08 PM CDT (4/19) 3:17 AM CDT (4/19)
Length of Visible Light 14h 31m
Length of Day
13h 32m
First Quarter, 62% of the Moon is Illuminated
Apr 19
First Quarter
Apr 25
Full
May 2
Last Quarter
May 9
New
May 17
First Quarter

Hourly Weather History & Observations

Time (CDT) Temp. Windchill Dew Point Humidity Pressure Visibility Wind Dir Wind Speed Gust Speed Precip Events Conditions
12:15 AM 26.8 °F 17.7 °F 20.5 °F 77% 30.01 in 10.0 mi WNW 9.2 mph - N/A   Clear
12:35 AM 25.9 °F 17.4 °F 20.3 °F 79% 30.00 in 10.0 mi WNW 8.1 mph - N/A   Clear
12:55 AM 25.5 °F 16.9 °F 19.9 °F 79% 29.99 in 10.0 mi WNW 8.1 mph - N/A   Clear
1:15 AM 25.2 °F 18.3 °F 19.4 °F 79% 29.99 in 10.0 mi West 5.8 mph - N/A   Clear
1:35 AM 25.0 °F 16.3 °F 19.2 °F 79% 29.98 in 10.0 mi WNW 8.1 mph - N/A   Clear
1:55 AM 24.6 °F 15.8 °F 18.7 °F 78% 29.98 in 10.0 mi WNW 8.1 mph - N/A   Clear
2:15 AM 23.2 °F 14.1 °F 18.0 °F 80% 29.98 in 10.0 mi West 8.1 mph - N/A   Clear
2:35 AM 22.6 °F 13.4 °F 17.6 °F 81% 29.97 in 10.0 mi WNW 8.1 mph - N/A   Clear
2:55 AM 22.3 °F 13.9 °F 17.1 °F 80% 29.97 in 10.0 mi West 6.9 mph - N/A   Clear
3:15 AM 22.1 °F 12.8 °F 16.9 °F 80% 29.97 in 10.0 mi West 8.1 mph - N/A   Clear
3:35 AM 21.7 °F 13.2 °F 16.5 °F 80% 29.96 in 10.0 mi West 6.9 mph - N/A   Clear
3:55 AM 22.5 °F 13.2 °F 16.7 °F 79% 29.96 in 10.0 mi West 8.1 mph - N/A   Clear
4:15 AM 23.4 °F 14.3 °F 16.9 °F 76% 29.95 in 10.0 mi West 8.1 mph - N/A   Clear
4:35 AM 22.1 °F 13.7 °F 16.5 °F 79% 29.94 in 10.0 mi West 6.9 mph - N/A   Clear
4:55 AM 20.3 °F 13.8 °F 15.6 °F 82% 29.95 in 10.0 mi WNW 4.6 mph - N/A   Scattered Clouds
5:15 AM 20.8 °F 12.1 °F 15.8 °F 81% 29.95 in 10.0 mi West 6.9 mph - N/A   Clear
5:55 AM 23.9 °F 15.8 °F 17.8 °F 77% 29.94 in 10.0 mi West 6.9 mph - N/A   Scattered Clouds
6:15 AM 23.9 °F - 17.8 °F 77% 29.94 in 10.0 mi Calm Calm - N/A   Mostly Cloudy
6:35 AM 23.7 °F - 18.5 °F 80% 29.94 in 10.0 mi Calm Calm - N/A   Overcast
6:55 AM 24.3 °F - 18.7 °F 79% 29.93 in 7.0 mi Calm Calm - N/A Snow Light Snow
7:15 AM 26.2 °F 19.6 °F 20.8 °F 80% 29.93 in 10.0 mi WNW 5.8 mph - N/A Snow Light Snow
7:35 AM 26.4 °F 20.9 °F 21.0 °F 80% 29.93 in 10.0 mi WNW 4.6 mph - N/A   Scattered Clouds
7:55 AM 27.7 °F 23.8 °F 22.5 °F 81% 29.94 in 10.0 mi WNW 3.5 mph - N/A   Clear
8:15 AM 30.2 °F 24.3 °F 24.8 °F 80% 29.94 in 10.0 mi West 5.8 mph - N/A   Mostly Cloudy
8:35 AM 32.0 °F 24.8 °F 27.3 °F 83% 29.94 in 10.0 mi West 8.1 mph - N/A   Mostly Cloudy
8:55 AM 35.2 °F 26.2 °F 27.3 °F 73% 29.94 in 10.0 mi WNW 13.8 mph - N/A   Scattered Clouds
9:15 AM 36.9 °F 27.8 °F 28.4 °F 71% 29.94 in 10.0 mi NW 15.0 mph 24.2 mph N/A   Clear
9:35 AM 37.9 °F 27.3 °F 29.5 °F 72% 29.95 in 10.0 mi NNW 21.9 mph 27.6 mph N/A   Clear
9:55 AM 38.8 °F 28.3 °F 30.0 °F 71% 29.95 in 10.0 mi NW 23.0 mph 29.9 mph N/A   Clear
10:15 AM 40.1 °F 29.2 °F 31.5 °F 71% 29.94 in 10.0 mi NNW 26.5 mph 32.2 mph N/A   Scattered Clouds
10:35 AM 41.0 °F 30.5 °F 30.9 °F 67% 29.95 in 10.0 mi NNW 26.5 mph 34.5 mph N/A   Scattered Clouds
10:55 AM 41.2 °F 30.9 °F 29.5 °F 63% 29.96 in 10.0 mi NNW 25.3 mph 34.5 mph N/A   Scattered Clouds
11:15 AM 42.1 °F 31.9 °F 28.2 °F 58% 29.96 in 10.0 mi NNW 26.5 mph 31.1 mph N/A   Scattered Clouds
11:35 AM 42.8 °F 33.5 °F 27.5 °F 55% 29.97 in 10.0 mi NNW 23.0 mph 31.1 mph N/A   Scattered Clouds
11:55 AM 43.3 °F 35.0 °F 26.8 °F 52% 29.98 in 10.0 mi NNW 19.6 mph 31.1 mph N/A   Scattered Clouds
12:15 PM 44.2 °F 36.2 °F 26.4 °F 50% 29.98 in 10.0 mi NNW 19.6 mph 31.1 mph N/A   Mostly Cloudy
12:35 PM 43.2 °F 34.7 °F 26.8 °F 52% 29.99 in 10.0 mi NNW 19.6 mph 27.6 mph N/A   Mostly Cloudy
12:55 PM 42.6 °F 33.3 °F 24.4 °F 49% 29.99 in 10.0 mi NNW 23.0 mph 28.8 mph N/A   Overcast
1:15 PM 42.8 °F 34.8 °F 24.1 °F 48% 29.99 in 10.0 mi NNW 17.3 mph 29.9 mph N/A   Overcast
1:35 PM 43.0 °F 35.1 °F 25.5 °F 50% 29.99 in 10.0 mi NNW 17.3 mph 25.3 mph N/A   Overcast
1:55 PM 41.0 °F 32.5 °F 26.8 °F 57% 30.00 in 10.0 mi NNW 17.3 mph 27.6 mph N/A   Overcast
2:15 PM 41.9 °F 34.0 °F 28.6 °F 59% 30.00 in 10.0 mi NNW 16.1 mph 23.0 mph N/A   Overcast
2:35 PM 41.0 °F 33.5 °F 29.1 °F 63% 30.01 in 7.0 mi NNW 13.8 mph 23.0 mph N/A   Unknown
2:55 PM 41.9 °F 34.0 °F 29.3 °F 61% 30.01 in 10.0 mi NW 16.1 mph 20.7 mph N/A   Overcast
3:15 PM 41.7 °F 34.1 °F 27.5 °F 57% 30.01 in 10.0 mi NNW 15.0 mph 20.7 mph N/A   Overcast
3:35 PM 42.3 °F 34.8 °F 26.4 °F 54% 30.01 in 10.0 mi NNW 15.0 mph 21.9 mph N/A   Overcast
3:55 PM 43.9 °F 36.5 °F 25.3 °F 48% 30.00 in 10.0 mi NNW 16.1 mph 23.0 mph N/A   Overcast
4:15 PM 43.5 °F 35.8 °F 25.2 °F 48% 30.00 in 10.0 mi NNW 17.3 mph 27.6 mph N/A   Overcast
4:35 PM 45.0 °F 39.7 °F 25.0 °F 46% 30.00 in 10.0 mi NNW 10.4 mph 21.9 mph N/A   Overcast
4:55 PM 42.8 °F 36.2 °F 25.2 °F 50% 30.01 in 10.0 mi NW 12.7 mph - N/A   Overcast
5:15 PM 42.4 °F 35.7 °F 25.3 °F 51% 30.01 in 10.0 mi NW 12.7 mph - N/A   Overcast
5:35 PM 42.3 °F 35.5 °F 24.8 °F 50% 30.01 in 10.0 mi NNW 12.7 mph 17.3 mph N/A   Overcast
5:55 PM 42.1 °F 35.2 °F 23.7 °F 48% 30.01 in 10.0 mi NNW 12.7 mph - N/A   Overcast
6:15 PM 42.1 °F 35.2 °F 23.9 °F 49% 30.01 in 10.0 mi North 12.7 mph - N/A   Overcast
6:35 PM 42.3 °F 36.3 °F 24.3 °F 49% 30.01 in 10.0 mi NNW 10.4 mph - N/A   Overcast
6:55 PM 42.6 °F 36.3 °F 24.4 °F 49% 30.01 in 10.0 mi NNW 11.5 mph - N/A   Mostly Cloudy
7:15 PM 41.9 °F 35.9 °F 24.4 °F 50% 30.01 in 10.0 mi North 10.4 mph - N/A   Scattered Clouds
7:35 PM 41.5 °F 35.9 °F 24.6 °F 51% 30.01 in 10.0 mi NW 9.2 mph - N/A   Clear
7:55 PM 40.8 °F 38.8 °F 24.8 °F 53% 30.01 in 10.0 mi NW 3.5 mph - N/A   Clear
8:15 PM 38.3 °F - 24.3 °F 57% 30.02 in 10.0 mi Calm Calm - N/A   Scattered Clouds
8:35 PM 37.8 °F - 24.8 °F 60% 30.02 in 10.0 mi Calm Calm - N/A   Scattered Clouds
8:55 PM 36.7 °F - 24.8 °F 62% 30.02 in 10.0 mi Calm Calm - N/A   Clear
9:15 PM 35.1 °F - 24.8 °F 66% 30.02 in 10.0 mi Calm Calm - N/A   Clear
9:35 PM 33.8 °F - 24.6 °F 69% 30.03 in 10.0 mi Calm Calm - N/A   Clear
9:55 PM 32.2 °F - 24.3 °F 73% 30.03 in 10.0 mi Calm Calm - N/A   Clear
10:15 PM 31.1 °F - 23.9 °F 75% 30.03 in 10.0 mi Calm Calm - N/A   Clear
10:35 PM 32.0 °F - 24.4 °F 74% 30.03 in 10.0 mi Calm Calm - N/A   Clear
10:55 PM 29.1 °F 23.0 °F 23.7 °F 80% 30.02 in 10.0 mi East 5.8 mph - N/A   Clear
11:15 PM 30.0 °F 26.5 °F 25.2 °F 82% 30.02 in 10.0 mi ENE 3.5 mph - N/A   Clear
11:35 PM 31.6 °F - 25.3 °F 78% 30.02 in 10.0 mi Calm Calm - N/A   Clear
11:55 PM 31.1 °F - 25.2 °F 79% 30.02 in 10.0 mi Calm Calm - N/A   Clear